Air Resources Laboratory banner image
Air Resources Laboratory web site National Oceanic and Atmospheric Administration (NOAA)

wa roundup


Office: SEW

ASUS46 KSEW 141310
RWRWA

WASHINGTON REGIONAL WEATHER ROUNDUP
NATIONAL WEATHER SERVICE SEATTLE WA
500 AM PST THU DEC 14 2017

NOTE:"FAIR" INDICATES FEW OR NO CLOUDS BELOW 12,000 FEET WITH NO
SIGNIFICANT WEATHER AND/OR OBSTRUCTIONS TO VISIBILITY.

WAZ507-509-555>559-141400-
SEATTLE, TACOMA, EVERETT, AND VICINITY

CITY           SKY/WX    TMP DP  RH WIND       PRES   REMARKS
EVERETT        PTCLDY    39  33  79 NE5       30.35F
BOEING FIELD   MOCLDY    34  34 100 CALM      30.35F
RENTON         MOCLDY    33  32  96 CALM      30.34F
SEATAC AIRPORT MOCLDY    39  37  92 NE10      30.33F
JBLM-MCCHORD   MOCLDY    30  30 100 CALM      30.33F
PUYALLUP       FAIR      30  30 100 CALM      30.33F
BREMERTON      MOCLDY    38  37  97 NE6       30.33F
JBLM-FT LEWIS  MOCLDY    28  28 100 E5        30.32F
TACOMA NARROWS MOCLDY    37  37 100 CALM      30.32F
$$

WAZ001-503-506-510-514-515-141400-
NORTH INTERIOR

CITY           SKY/WX    TMP DP  RH WIND       PRES   REMARKS
BELLINGHAM     PTCLDY    32  31  96 CALM      30.37S FOG
FRIDAY HARBOR  MOCLDY    41  39  93 CALM      30.37F
EASTSOUND      FOG       37  37 100 CALM      30.37F VSB 3/4
PORT ANGELES   MOCLDY    34  34 100 CALM      30.37R
EDIZ HOOK      FAIR      42  38  86 CALM      30.37S
PORT TOWNSEND  FAIR      30  30 100 CALM      30.37F FOG
NAS WHIDBEY    MOCLDY    40  36  86 SE3       30.40F
ARLINGTON      PTCLDY    28  27  96 CALM      30.37F
BURLINGTON     CLEAR     32  32 100 NE3       30.37F
$$

WAZ020-022-039-040-504-511-512-141400-
SOUTHWEST INTERIOR

CITY           SKY/WX    TMP DP  RH WIND       PRES   REMARKS
SHELTON        MOCLDY    30  29  96 CALM      30.31S FOG
OLYMPIA        FOG       32  32 100 CALM      30.33F VSB 1/2
CHEHALIS       FOG       30  30 100 CALM      30.34F VSB 1/4
KELSO          FOG       29  28  96 CALM      30.36S VSB 1/2
VANCOUVER      CLEAR     27  27 100 CALM      30.35F
SCAPPOOSE, OR  CLEAR     28  27  96 SW3       30.35S
PORTLAND, OR   CLEAR     39  30  70 VRB3      30.34S
$$

WAZ021-516-517-141400-
WASHINGTON COAST

CITY           SKY/WX    TMP DP  RH WIND       PRES   REMARKS
FORKS          PTCLDY    32  31  96 CALM      30.32S
HOQUIAM        PTCLDY    39  38  96 E10       30.30S
ASTORIA, OR    CLEAR     38  32  79 E7        30.26F
$$

WAZ019-023-024-040-567>569-141400-
CASCADE MOUNTAINS AND COLUMBIA GORGE

CITY           SKY/WX    TMP DP  RH WIND       PRES   REMARKS
STAMPEDE PASS  FOG       22  20  92 N9        30.38S VSB 1/2
TROUTDALE, OR  PTCLDY    39  28  64 E28G36    30.35F
HOOD RIVER, OR CLOUDY    32  27  80 NE7       30.61S
THE DALLES, OR CLOUDY    34  26  72 SE10      30.65R WCI  26
$$

WAZ026-027-041>044-520-521-141400-
EAST SLOPES

CITY           SKY/WX    TMP DP  RH WIND       PRES   REMARKS
OMAK           LGT SNOW  31  30  96 S5        30.57F FOG
WENATCHEE      CLOUDY    30  27  88 CALM      30.58F
ELLENSBURG     CLOUDY    30  28  92 CALM      30.55F FOG
YAKIMA         CLOUDY    32  28  85 W5        30.61S
SUNNYSIDE ARPT CLOUDY    30  27  87 CALM      30.62F
YAKIMA TC      CLOUDY    29  26  88 CALM      30.56F
$$

WAZ028-034-035-141400-
COLUMBIA BASIN

CITY           SKY/WX    TMP DP  RH WIND       PRES   REMARKS
EPHRATA        CLOUDY    33  26  75 N6        30.57F
MOSES LAKE     CLOUDY    31  27  85 CALM      30.58F
PASCO          CLOUDY    32  28  85 SE3       30.65F
RICHLAND ARPT  CLOUDY    32  30  93 CALM      30.65S
HERMISTON, OR  CLOUDY    30  27  88 SE5       30.62F
$$

WAZ036>038-141400-
NORTHEAST WASHINGTON

CITY           SKY/WX    TMP DP  RH WIND       PRES   REMARKS
SPOKANE GEIGER CLOUDY    30  27  88 N5        30.53S
SPOKANE FELTS  CLOUDY    32  27  81 CALM      30.56R
FAIRCHILD AFB  CLOUDY    29  29  99 N6        30.52S
COEURDALENE,ID NOT AVBL
DEER PARK      CLOUDY    30  26  85 N7        30.55S
$$

WAZ029>033-141400-
SOUTHEAST WASHINGTON

CITY           SKY/WX    TMP DP  RH WIND       PRES   REMARKS
PULLMAN        CLOUDY    27  24  89 E5        30.52S FOG
LEWISTON, ID   CLOUDY    32  28  85 CALM      30.56S
WALLA WALLA    CLOUDY    29  27  92 NW6       30.59S FOG
PENDLETON, OR  CLOUDY    27  25  92 CALM      30.57S
$$